Weather in Bilylivka

Ukraine / Zhytomyr Region     49°40′33″N   29°02′01″E
temp.,
°C
wind,
m/s
gust,
m/s
humid.,
%
clouds,
%
prec.,
mm/h
press.,
hPa
HPBL,
m
14 may, fri
fri1400:00+10sse5139086 0.3 1008448
03:00+9sse5128655 0.3 1008380
06:00+7se3109211 0.0 1007211
09:00+13sse476755 0.0 1006424
12:00+16s7859100 0.0 10061054
15:00+15ssw457598 0.6 1006687
18:00+13sw368779 0.5 1006306
21:00+11ssw3893100 0.6 1007228
15 may, sat
sat1500:00+11sw379484 0.1 1008190
03:00+11sw3694100 0.1 1008152
06:00+10wsw3893100 0.0 1009198
09:00+14wsw4774100 0.0 1010613
12:00+14sw687077 0.0 10111083
15:00+13wsw5881100 0.1 1011686
18:00+15wsw467077 0.2 10111121
21:00+10wsw33915 0.3 101249
16 may, sun
sun1600:00+9w229137 0.0 101220
03:00+8wsw11895 0.0 101310
06:00+8sse229113 0.0 101326
09:00+15se3470100 0.0 1013343
12:00+20se456158 0.0 10121028
15:00+20sse6759100 0.9 10111524
18:00+20sse3766100 0.4 1009992
21:00+15se4683100 0.6 100983
17 may, mon
mon1700:00+14ese3783100 0.2 1008135
03:00+13s2393100 0.9 100757
06:00+13ene2292100 0.3 100743
09:00+13wnw469494 0.7 1007213
12:00+17nnw447987 0.9 1007809
15:00+15wnw6883100 3.0 1008681
18:00+15nw4679100 0.0 1008634
21:00+12wnw34883 0.2 100956
18 may, tue
tue1800:00+10nw33870 0.0 101127
03:00+9w33883 0.0 101227
06:00+10w2286100 0.0 101235
09:00+15se117094 0.0 1012291
12:00+19se345533 0.0 10111177
15:00+20sse675588 0.0 10091617
18:00+18se5972100 0.4 1008814
21:00+16ese61581100 0.7 1005514